Weather History for Huntington, WV

Change the Weather History Date:

Friday, August 15, 2014

  Actual Average Record
Temperature  
Mean Temperature 68 °F 75 °F  
Max Temperature 79 °F 86 °F 97 °F (2007)
Min Temperature 56 °F 65 °F 46 °F (1964)
Degree Days  
Heating Degree Days 0 0  
Month to date heating degree days 0 0  
Since 1 June heating degree days 3 12  
Since 1 July heating degree days 3 0  
Cooling Degree Days 3 10  
Month to date cooling degree days 88 159  
Year to date cooling degree days 683 829  
Since 1 June cooling degree days 569 716  
Growing Degree Days 17 (Base 50)    
Moisture  
Dew Point 57 °F    
Average Humidity 70    
Maximum Humidity 100    
Minimum Humidity 39    
Precipitation  
Precipitation 0.00 in 0.12 in 1.15 in (1915)
Month to date precipitation 1.38 1.88  
Year to date precipitation 29.44 28.39  
Snow  
Snow 0.00 in - - ()
Month to date snowfall 0.0  
Since 1 September snowfall 36.8  
Snow Depth 0.00 in    
Sea Level Pressure  
Sea Level Pressure 30.02 in    
Wind  
Wind Speed 2 mph (East)    
Max Wind Speed 8 mph    
Max Gust Speed 14 mph    
Visibility 8 miles    
Events Fog    
T = Trace of Precipitation, MM = Missing Value Source: NWS Daily Summary

Daily Weather History Graph

Daily Weather History Graph

Search for Another Location

Airport:

Trip Planner

Search our weather history database for the weather conditions in past years. The results will help you decide how hot, cold, wet, or windy it might be!

Date:

Astronomy

Aug. 15, 2014 Rise Set
Actual Time 6:44 AM EDT 8:23 PM EDT
Civil Twilight 6:16 AM EDT 8:52 PM EDT
Nautical Twilight 5:42 AM EDT 9:26 PM EDT
Astronomical Twilight 5:06 AM EDT 10:02 PM EDT
Moon 11:30 PM EDT (8/15) 12:21 PM EDT (8/15)
Length of Visible Light 14h 35m
Length of Day
13h 39m
Waning Gibbous, 69% of the Moon is Illuminated
Aug 15
Waning Gibbous
Aug 17
Last Quarter
Aug 25
New
Sep 2
First Quarter
Sep 8
Full

Hourly Weather History & Observations

Time (EDT) Temp. Dew Point Humidity Pressure Visibility Wind Dir Wind Speed Gust Speed Precip Events Conditions
12:51 AM 62.1 °F 62.1 °F 100% 30.01 in 10.0 mi Calm Calm - N/A   Mostly Cloudy
1:24 AM 63.0 °F 63.0 °F 100% 30.02 in 10.0 mi Calm Calm - N/A   Overcast
1:51 AM 63.0 °F 63.0 °F 100% 30.00 in 10.0 mi NNE 3.5 mph - N/A   Overcast
2:51 AM 60.1 °F 60.1 °F 100% 30.00 in 10.0 mi East 4.6 mph - N/A   Scattered Clouds
3:51 AM 60.1 °F 57.9 °F 93% 29.99 in 10.0 mi East 3.5 mph - N/A   Mostly Cloudy
4:51 AM 59.0 °F 57.9 °F 96% 30.00 in 10.0 mi NNE 3.5 mph - N/A   Partly Cloudy
5:51 AM 57.0 °F 57.0 °F 100% 30.01 in 10.0 mi Calm Calm - N/A   Clear
6:06 AM 57.2 °F 57.2 °F 100% 30.03 in 10.0 mi Calm Calm - N/A   Scattered Clouds
6:28 AM 55.9 °F 55.9 °F 100% 30.03 in 10.0 mi Calm Calm - N/A   Mostly Cloudy
6:39 AM 55.9 °F 55.9 °F 100% 30.04 in 10.0 mi Calm Calm - N/A   Partly Cloudy
6:51 AM 55.9 °F 55.9 °F 100% 30.03 in 0.2 mi Calm Calm - N/A Fog Fog
7:49 AM 57.2 °F 57.2 °F 100% 30.05 in 0.2 mi Calm Calm - N/A Fog Fog
7:51 AM 57.9 °F 57.9 °F 100% 30.04 in 0.2 mi Calm Calm - N/A Fog Fog
8:51 AM 59.0 °F 59.0 °F 100% 30.04 in 0.5 mi Calm Calm - N/A Fog Fog
9:25 AM 60.1 °F 60.1 °F 100% 30.06 in 5.0 mi SE 3.5 mph - N/A   Partly Cloudy
9:51 AM 61.0 °F 61.0 °F 100% 30.05 in 5.0 mi Calm Calm - N/A   Partly Cloudy
10:51 AM 68.0 °F 62.6 °F 83% 30.07 in 10.0 mi Calm Calm - N/A   Clear
11:51 AM 71.1 °F 60.1 °F 68% 30.06 in 10.0 mi Variable 3.5 mph - N/A   Scattered Clouds
12:51 PM 73.0 °F 57.9 °F 59% 30.04 in 10.0 mi SE 5.8 mph - N/A   Mostly Cloudy
1:51 PM 73.4 °F 57.2 °F 57% 30.03 in 10.0 mi Variable 4.6 mph - N/A   Scattered Clouds
2:51 PM 75.0 °F 55.9 °F 51% 30.01 in 10.0 mi Calm Calm - N/A   Mostly Cloudy
3:51 PM 77.0 °F 54.0 °F 45% 29.99 in 10.0 mi Calm Calm - N/A   Mostly Cloudy
4:51 PM 78.8 °F 51.8 °F 39% 30.01 in 10.0 mi Variable 5.8 mph - N/A   Clear
5:51 PM 77.0 °F 51.1 °F 40% 29.99 in 10.0 mi West 4.6 mph - N/A   Clear
6:51 PM 77.0 °F 54.0 °F 45% 29.98 in 10.0 mi Calm Calm - N/A   Partly Cloudy
7:51 PM 73.0 °F 50.0 °F 44% 29.98 in 10.0 mi ENE 3.5 mph - N/A   Clear
8:51 PM 68.0 °F 51.1 °F 55% 29.99 in 10.0 mi Calm Calm - N/A   Clear
9:51 PM 63.0 °F 55.0 °F 75% 30.01 in 10.0 mi Calm Calm - N/A   Clear
10:51 PM 62.1 °F 55.9 °F 80% 30.02 in 10.0 mi Calm Calm - N/A   Clear
11:51 PM 59.0 °F 57.2 °F 94% 30.03 in 10.0 mi Calm Calm - N/A   Clear